Home   Weather   19°27'N, 99°13'W   Past weeks
Flag for Mexico

Past Weather in 19°27'N, 99°13'W, Mexico — Yesterday and Last 2 Weeks

Now
75 °F

Passing clouds.


Feels Like: 75 °F
Forecast: N/A
Wind: 8 mph from East

Location: Mexico City / Licenci

Current Time: Mar 20, 2019 at 3:58:12 pm

Latest Report: Mar 20, 2019 at 2:52 pm


Visibility: 9 mi

Pressure: 29.76 "Hg

Humidity: 14%

Dew Point: 23 °F

Location of 19°27'N, 99°13'WLocation

Past Weather in 19°27'N, 99°13'W — Graph

°F

19°27'N, 99°13'W Temperature Yesterday

Maximum temperature yesterday: 77 °F (at 3:14 pm)
Minimum temperature yesterday: 46 °F (at 6:45 am)
Average temperature yesterday: 63 °F

High & Low Weather Summary for the Past Weeks

 TemperatureHumidityPressure
High86 °F (Mar 12, 3:45 pm)87% (Mar 19, 6:45 am)30.48 "Hg (Mar 19, 6:45 am)
Low46 °F (Mar 19, 6:45 am)6% (Mar 12, 3:45 pm)29.54 "Hg (Mar 13, 2:48 pm)
Average67 °F41%30.14 "Hg
* Reported Mar 5 1:45 pm — Mar 20 1:44 pm, 19°27'N, 99°13'W. Weather by CustomWeather, © 2019

Note: Actual official high and low records may vary slightly from our data, if they occured in-between our weather recording intervals... More about our weather records

Advertising

19°27'N, 99°13'W Weather History for the Previous 24 Hours

Scroll right to see more
 ConditionsComfort  
Time TempWeatherWind HumidityBarometerVisibility
1:44 pm
Wed, Mar 20
73 °FSunny.9 mph15%30.25 "Hg10 mi
12:45 pm72 °FSunny.10 mph15%30.28 "Hg10 mi
11:45 am70 °FSunny.5 mph15%29.80 "Hg10 mi
11:22 am70 °FSunny.5 mph17%30.33 "Hg9 mi
10:45 am66 °FSunny.5 mph28%30.34 "Hg8 mi
10:12 am64 °FSunny.5 mph37%30.35 "Hg8 mi
9:45 am61 °FSunny.No wind45%30.35 "Hg7 mi
9:04 am57 °FSunny.5 mph59%30.35 "Hg7 mi
8:45 am54 °FSunny.5 mph63%29.92 "Hg7 mi
7:45 am50 °FSunny.6 mph71%30.34 "Hg7 mi
6:47 am48 °FSunny.5 mph71%30.31 "Hg8 mi
5:44 am48 °FClear.7 mph76%29.84 "Hg8 mi
4:44 am48 °FClear.8 mph76%30.28 "Hg8 mi
3:41 am50 °FClear.6 mph71%30.27 "Hg8 mi
2:45 am50 °FClear.7 mph71%29.81 "Hg9 mi
2:01 am54 °FClear.6 mph63%30.28 "Hg9 mi
12:44 am57 °FClear.6 mph55%30.29 "Hg9 mi
12:31 am57 °FClear.2 mph48%30.29 "Hg10 mi
11:51 pm
Tue, Mar 19
61 °FClear.7 mph36%29.77 "Hg10 mi
10:45 pm63 °FClear.2 mph27%30.29 "Hg10 mi
9:50 pm64 °FClear.3 mph26%30.28 "Hg10 mi
8:46 pm66 °FClear.12 mph28%29.84 "Hg10 mi
7:41 pm68 °FPassing clouds.12 mph26%30.24 "Hg10 mi
7:21 pm68 °FPassing clouds.14 mph28%30.22 "Hg10 mi
6:45 pm72 °FScattered clouds.16 mph25%30.21 "Hg10 mi
5:45 pm73 °FScattered clouds.12 mph22%29.75 "Hg8 mi
5:44 pm73 °FScattered clouds.12 mph22%30.18 "Hg8 mi
4:51 pm77 °FScattered clouds.5 mph15%30.17 "Hg8 mi
3:46 pm77 °FScattered clouds.12 mph15%30.18 "Hg8 mi
3:14 pm77 °FPartly sunny.6 mph21%30.13 "Hg8 mi
Weather by CustomWeather, © 2019

See weather overview